Time,TemperatureF,DewpointF,PressureIn,WindDirection,WindDirectionDegrees,WindSpeedMPH,WindSpeedGustMPH,Humidity,HourlyPrecipIn,Conditions,Clouds,dailyrainin,SoftwareType,DateUTC
2013-09-23 00:03:00,64.8,51.9,29.67,ESE,112,9.4,-999.0,63,-99.99,,,0.00,Acu-Link.com,2013-09-23 05:03:00,
2013-09-23 00:18:00,64.2,52.2,29.67,SSE,157,11.9,-999.0,65,-99.99,,,0.00,Acu-Link.com,2013-09-23 05:18:00,
2013-09-23 00:33:00,63.7,52.1,29.67,SE,135,10.9,-999.0,66,-99.99,,,0.00,Acu-Link.com,2013-09-23 05:33:00,
2013-09-23 00:48:00,63.5,52.3,29.67,SSE,157,8.9,-999.0,67,-99.99,,,0.00,Acu-Link.com,2013-09-23 05:48:00,
2013-09-23 01:03:00,63.1,52.4,29.67,South,180,13.5,-999.0,68,-99.99,,,0.00,Acu-Link.com,2013-09-23 06:03:00,
2013-09-23 01:18:00,62.8,52.5,29.67,NE,45,14.5,-999.0,69,-99.99,,,0.00,Acu-Link.com,2013-09-23 06:18:00,
2013-09-23 01:33:00,62.2,51.9,29.67,SE,135,7.8,-999.0,69,-99.99,,,0.00,Acu-Link.com,2013-09-23 06:33:00,
2013-09-23 01:48:00,62.1,52.2,29.67,SSE,157,11.4,-999.0,70,-99.99,,,0.00,Acu-Link.com,2013-09-23 06:48:00,
2013-09-23 02:03:00,61.5,51.6,29.67,ESE,112,8.3,-999.0,70,-99.99,,,0.00,Acu-Link.com,2013-09-23 07:03:00,
2013-09-23 02:18:00,61.2,51.7,29.67,SSE,157,8.9,-999.0,71,-99.99,,,0.00,Acu-Link.com,2013-09-23 07:18:00,
2013-09-23 02:33:00,60.8,51.3,29.67,ESE,112,7.3,-999.0,71,-99.99,,,0.00,Acu-Link.com,2013-09-23 07:33:00,
2013-09-23 02:48:00,60.6,51.5,29.66,ESE,112,7.8,-999.0,72,-99.99,,,0.00,Acu-Link.com,2013-09-23 07:48:00,
2013-09-23 03:04:00,60.3,51.2,29.66,South,180,13.5,-999.0,72,-99.99,,,0.00,Acu-Link.com,2013-09-23 08:04:00,
2013-09-23 03:20:00,60.3,51.2,29.66,South,180,13.0,-999.0,72,-99.99,,,0.00,Acu-Link.com,2013-09-23 08:20:00,
2013-09-23 03:35:00,60.3,51.2,29.65,ESE,112,10.4,-999.0,72,-99.99,,,0.00,Acu-Link.com,2013-09-23 08:35:00,
2013-09-23 03:50:00,60.1,51.0,29.65,SSE,157,8.9,-999.0,72,-99.99,,,0.00,Acu-Link.com,2013-09-23 08:50:00,
2013-09-23 04:05:00,59.9,50.8,29.65,SE,135,6.8,-999.0,72,-99.99,,,0.00,Acu-Link.com,2013-09-23 09:05:00,
2013-09-23 04:20:00,59.4,50.4,29.66,ESE,112,6.3,-999.0,72,-99.99,,,0.00,Acu-Link.com,2013-09-23 09:20:00,
2013-09-23 04:35:00,59.0,50.4,29.65,SE,135,10.9,-999.0,73,-99.99,,,0.00,Acu-Link.com,2013-09-23 09:35:00,
2013-09-23 04:51:00,58.3,50.0,29.65,ESE,112,7.8,-999.0,74,-99.99,,,0.00,Acu-Link.com,2013-09-23 09:51:00,
2013-09-23 05:06:00,57.6,49.7,29.64,ESE,112,5.3,-999.0,75,-99.99,,,0.00,Acu-Link.com,2013-09-23 10:06:00,
2013-09-23 05:21:00,57.2,49.7,29.64,SSE,157,5.8,-999.0,76,-99.99,,,0.00,Acu-Link.com,2013-09-23 10:21:00,
2013-09-23 05:36:00,56.7,49.2,29.64,SSE,157,7.3,-999.0,76,-99.99,,,0.00,Acu-Link.com,2013-09-23 10:36:00,
2013-09-23 05:51:00,56.5,49.0,29.65,SE,135,7.8,-999.0,76,-99.99,,,0.00,Acu-Link.com,2013-09-23 10:51:00,
2013-09-23 06:06:00,56.3,49.2,29.65,SSE,157,10.4,-999.0,77,-99.99,,,0.00,Acu-Link.com,2013-09-23 11:06:00,
2013-09-23 06:21:00,55.9,48.8,29.66,ESE,112,9.4,-999.0,77,-99.99,,,0.00,Acu-Link.com,2013-09-23 11:21:00,
2013-09-23 06:36:00,55.8,48.7,29.66,ESE,112,7.8,-999.0,77,-99.99,,,0.00,Acu-Link.com,2013-09-23 11:36:00,
2013-09-23 06:51:00,55.6,48.8,29.67,ESE,112,4.2,-999.0,78,-99.99,,,0.00,Acu-Link.com,2013-09-23 11:51:00,
2013-09-23 07:06:00,55.6,48.8,29.67,ESE,112,6.8,-999.0,78,-99.99,,,0.00,Acu-Link.com,2013-09-23 12:06:00,
2013-09-23 07:21:00,55.4,48.7,29.67,ESE,112,8.3,-999.0,78,-99.99,,,0.00,Acu-Link.com,2013-09-23 12:21:00,
2013-09-23 07:36:00,55.8,49.0,29.67,SSE,157,5.8,-999.0,78,-99.99,,,0.00,Acu-Link.com,2013-09-23 12:36:00,
2013-09-23 07:51:00,56.5,49.4,29.67,SSE,157,6.8,-999.0,77,-99.99,,,0.00,Acu-Link.com,2013-09-23 12:51:00,
2013-09-23 08:07:00,57.0,49.5,29.68,SE,135,12.5,-999.0,76,-99.99,,,0.00,Acu-Link.com,2013-09-23 13:07:00,
2013-09-23 08:22:00,57.9,50.0,29.67,ESE,112,10.4,-999.0,75,-99.99,,,0.00,Acu-Link.com,2013-09-23 13:22:00,
2013-09-23 08:37:00,58.6,50.0,29.67,SSE,157,9.9,-999.0,73,-99.99,,,0.00,Acu-Link.com,2013-09-23 13:37:00,
2013-09-23 08:52:00,59.0,50.4,29.67,SE,135,14.0,-999.0,73,-99.99,,,0.00,Acu-Link.com,2013-09-23 13:52:00,
2013-09-23 09:07:00,59.9,50.5,29.66,ESE,112,9.9,-999.0,71,-99.99,,,0.00,Acu-Link.com,2013-09-23 14:07:00,
2013-09-23 09:23:00,60.6,50.8,29.67,SSE,157,15.0,-999.0,70,-99.99,,,0.00,Acu-Link.com,2013-09-23 14:23:00,
2013-09-23 09:38:00,61.7,51.0,29.67,SSE,157,14.0,-999.0,68,-99.99,,,0.00,Acu-Link.com,2013-09-23 14:38:00,
2013-09-23 09:53:00,62.8,51.3,29.67,SSE,157,15.5,-999.0,66,-99.99,,,0.00,Acu-Link.com,2013-09-23 14:53:00,
2013-09-23 10:08:00,63.5,51.5,29.67,South,180,13.5,-999.0,65,-99.99,,,0.00,Acu-Link.com,2013-09-23 15:08:00,
2013-09-23 10:23:00,64.9,51.6,29.67,South,180,14.5,-999.0,62,-99.99,,,0.00,Acu-Link.com,2013-09-23 15:23:00,
2013-09-23 10:38:00,65.8,51.5,29.67,SSE,157,11.4,-999.0,60,-99.99,,,0.00,Acu-Link.com,2013-09-23 15:38:00,
2013-09-23 10:54:00,66.6,51.8,29.67,SSE,157,8.9,-999.0,59,-99.99,,,0.00,Acu-Link.com,2013-09-23 15:54:00,
2013-09-23 11:09:00,68.5,52.7,29.67,South,180,14.5,-999.0,57,-99.99,,,0.00,Acu-Link.com,2013-09-23 16:09:00,
2013-09-23 11:24:00,69.4,53.0,29.66,ESE,112,9.4,-999.0,56,-99.99,,,0.00,Acu-Link.com,2013-09-23 16:24:00,
2013-09-23 11:39:00,70.2,52.8,29.66,South,180,13.0,-999.0,54,-99.99,,,0.00,Acu-Link.com,2013-09-23 16:39:00,
2013-09-23 11:54:00,71.6,53.0,29.65,ESE,112,16.6,-999.0,52,-99.99,,,0.00,Acu-Link.com,2013-09-23 16:54:00,
2013-09-23 12:09:00,72.9,53.2,29.65,ESE,112,13.5,-999.0,50,-99.99,,,0.00,Acu-Link.com,2013-09-23 17:09:00,
2013-09-23 12:24:00,73.6,53.2,29.65,ESE,112,14.5,-999.0,49,-99.99,,,0.00,Acu-Link.com,2013-09-23 17:24:00,
2013-09-23 12:39:00,74.5,52.9,29.64,ESE,112,11.9,-999.0,47,-99.99,,,0.00,Acu-Link.com,2013-09-23 17:39:00,
2013-09-23 12:54:00,75.4,52.0,29.64,SSW,202,15.5,-999.0,44,-99.99,,,0.00,Acu-Link.com,2013-09-23 17:54:00,
2013-09-23 13:09:00,74.7,51.9,29.64,SSE,157,16.1,-999.0,45,-99.99,,,0.00,Acu-Link.com,2013-09-23 18:09:00,
2013-09-23 13:24:00,74.1,51.4,29.63,SSE,157,13.5,-999.0,45,-99.99,,,0.00,Acu-Link.com,2013-09-23 18:24:00,
2013-09-23 13:39:00,75.0,51.6,29.63,SE,135,15.5,-999.0,44,-99.99,,,0.00,Acu-Link.com,2013-09-23 18:39:00,
2013-09-23 13:54:00,76.5,51.0,29.62,ESE,112,13.0,-999.0,41,-99.99,,,0.00,Acu-Link.com,2013-09-23 18:54:00,
2013-09-23 14:09:00,77.2,52.3,29.62,SE,135,17.6,-999.0,42,-99.99,,,0.00,Acu-Link.com,2013-09-23 19:09:00,
2013-09-23 14:24:00,76.1,51.3,29.62,SSE,157,16.1,-999.0,42,-99.99,,,0.00,Acu-Link.com,2013-09-23 19:24:00,
2013-09-23 14:40:00,77.2,51.0,29.62,SSE,157,21.2,-999.0,40,-99.99,,,0.00,Acu-Link.com,2013-09-23 19:40:00,
2013-09-23 14:55:00,77.5,51.3,29.62,South,180,13.0,-999.0,40,-99.99,,,0.00,Acu-Link.com,2013-09-23 19:55:00,
2013-09-23 15:10:00,77.9,51.6,29.61,SSE,157,8.9,-999.0,40,-99.99,,,0.00,Acu-Link.com,2013-09-23 20:10:00,
2013-09-23 15:25:00,77.5,49.9,29.62,ESE,112,18.6,-999.0,38,-99.99,,,0.00,Acu-Link.com,2013-09-23 20:25:00,
2013-09-23 15:40:00,77.5,49.2,29.62,South,180,13.5,-999.0,37,-99.99,,,0.00,Acu-Link.com,2013-09-23 20:40:00,
2013-09-23 15:55:00,77.7,50.8,29.62,East,90,10.4,-999.0,39,-99.99,,,0.00,Acu-Link.com,2013-09-23 20:55:00,
2013-09-23 16:10:00,77.9,49.5,29.62,SSE,157,14.5,-999.0,37,-99.99,,,0.00,Acu-Link.com,2013-09-23 21:10:00,
2013-09-23 16:25:00,78.6,50.8,29.62,SE,135,13.5,-999.0,38,-99.99,,,0.00,Acu-Link.com,2013-09-23 21:25:00,
2013-09-23 16:40:00,77.7,50.1,29.62,ESE,112,11.4,-999.0,38,-99.99,,,0.00,Acu-Link.com,2013-09-23 21:40:00,
2013-09-23 16:55:00,77.7,50.1,29.62,SE,135,9.9,-999.0,38,-99.99,,,0.00,Acu-Link.com,2013-09-23 21:55:00,
2013-09-23 17:10:00,77.7,49.3,29.61,SE,135,7.8,-999.0,37,-99.99,,,0.00,Acu-Link.com,2013-09-23 22:10:00,
2013-09-23 17:25:00,77.2,49.6,29.62,ESE,112,12.5,-999.0,38,-99.99,,,0.00,Acu-Link.com,2013-09-23 22:25:00,
2013-09-23 17:40:00,77.0,49.4,29.62,SE,135,9.9,-999.0,38,-99.99,,,0.00,Acu-Link.com,2013-09-23 22:40:00,
2013-09-23 17:55:00,76.5,50.4,29.63,ESE,112,11.9,-999.0,40,-99.99,,,0.00,Acu-Link.com,2013-09-23 22:55:00,
2013-09-23 18:11:00,75.2,50.5,29.64,SSE,157,11.4,-999.0,42,-99.99,,,0.00,Acu-Link.com,2013-09-23 23:11:00,
2013-09-23 18:26:00,74.1,50.2,29.65,ESE,112,8.3,-999.0,43,-99.99,,,0.00,Acu-Link.com,2013-09-23 23:26:00,
2013-09-23 18:41:00,73.0,50.4,29.65,ESE,112,9.4,-999.0,45,-99.99,,,0.00,Acu-Link.com,2013-09-23 23:41:00,
2013-09-23 18:56:00,72.0,50.7,29.65,SSE,157,3.2,-999.0,47,-99.99,,,0.00,Acu-Link.com,2013-09-23 23:56:00,
2013-09-23 19:11:00,70.5,51.0,29.66,SSE,157,3.7,-999.0,50,-99.99,,,0.00,Acu-Link.com,2013-09-24 00:11:00,
2013-09-23 19:26:00,69.6,51.7,29.66,ESE,112,3.2,-999.0,53,-99.99,,,0.00,Acu-Link.com,2013-09-24 00:26:00,
2013-09-23 19:41:00,68.9,51.6,29.65,ESE,112,4.2,-999.0,54,-99.99,,,0.00,Acu-Link.com,2013-09-24 00:41:00,
2013-09-23 19:56:00,68.5,51.7,29.65,ESE,112,3.7,-999.0,55,-99.99,,,0.00,Acu-Link.com,2013-09-24 00:56:00,
2013-09-23 20:12:00,68.2,51.9,29.65,SSW,202,5.3,-999.0,56,-99.99,,,0.00,Acu-Link.com,2013-09-24 01:12:00,
2013-09-23 20:27:00,67.6,51.8,29.66,ESE,112,8.9,-999.0,57,-99.99,,,0.00,Acu-Link.com,2013-09-24 01:27:00,
2013-09-23 20:42:00,67.5,51.7,29.66,SE,135,5.3,-999.0,57,-99.99,,,0.00,Acu-Link.com,2013-09-24 01:42:00,
2013-09-23 20:57:00,67.3,51.5,29.66,ESE,112,7.3,-999.0,57,-99.99,,,0.00,Acu-Link.com,2013-09-24 01:57:00,
2013-09-23 21:12:00,66.7,51.4,29.68,ESE,112,10.4,-999.0,58,-99.99,,,0.00,Acu-Link.com,2013-09-24 02:12:00,
2013-09-23 21:28:00,66.2,51.4,29.68,SE,135,10.4,-999.0,59,-99.99,,,0.00,Acu-Link.com,2013-09-24 02:28:00,
2013-09-23 21:43:00,65.8,52.0,29.69,ESE,112,7.3,-999.0,61,-99.99,,,0.00,Acu-Link.com,2013-09-24 02:43:00,
2013-09-23 21:58:00,65.1,52.2,29.70,ESE,112,6.3,-999.0,63,-99.99,,,0.00,Acu-Link.com,2013-09-24 02:58:00,
2013-09-23 22:13:00,64.8,51.9,29.71,SSE,157,3.7,-999.0,63,-99.99,,,0.00,Acu-Link.com,2013-09-24 03:13:00,
2013-09-23 22:29:00,64.0,51.6,29.71,ESE,112,4.2,-999.0,64,-99.99,,,0.00,Acu-Link.com,2013-09-24 03:29:00,
2013-09-23 22:44:00,63.9,51.9,29.72,ESE,112,2.7,-999.0,65,-99.99,,,0.00,Acu-Link.com,2013-09-24 03:44:00,
2013-09-23 22:59:00,63.7,51.7,29.72,ESE,112,5.3,-999.0,65,-99.99,,,0.00,Acu-Link.com,2013-09-24 03:59:00,
2013-09-23 23:14:00,63.7,51.3,29.72,SE,135,4.7,-999.0,64,-99.99,,,0.00,Acu-Link.com,2013-09-24 04:14:00,
2013-09-23 23:29:00,63.7,51.3,29.72,SSE,157,6.3,-999.0,64,-99.99,,,0.00,Acu-Link.com,2013-09-24 04:29:00,
2013-09-23 23:44:00,63.5,51.1,29.72,ESE,112,3.7,-999.0,64,-99.99,,,0.00,Acu-Link.com,2013-09-24 04:44:00,